{"data":{"norad_id":68254,"intl_designator":"2026-054Y","name":"STARLINK-37084","alt_names":[],"object_type":"PAYLOAD","status":"ACTIVE","operator":null,"country":"US","launch_date":"2026-03-17","launch_site_code":"AFETR","launch_vehicle":null,"mission":null,"orbit_class":"UNKNOWN","rcs_meters":null,"size_class":null,"mass_kg":null,"dimensions":null,"purposes":["comms"],"wikipedia_slug":null,"has_3d_model":false,"image_url":null,"decayed_at":null,"tle_current":{"epoch":"2026-05-25T03:20:38.522400Z","epoch_age_seconds":73500,"freshness":"FRESH","line1":"1 68254U 26054Y   26145.13933475  .00062887  00000+0  11276-2 0  9994","line2":"2 68254  53.1583 297.7261 0001291  92.1817 267.9340 15.49362342 10750","mean_motion":15.49362342,"eccentricity":0.0001291,"inclination_deg":53.1583,"raan_deg":297.7261,"arg_perigee_deg":92.1817,"mean_anomaly_deg":267.934,"bstar":0.0011276,"rev_number":1075,"period_min":92.941461204044,"perigee_km":417.71282021501,"apogee_km":419.46773519811,"semimajor_km":6796.7272777066,"source":"CELESTRAK","updated_at":"2026-05-25T13:38:21.887750Z"}}}